Zurück zum Katalog

COSMOS 1160

AktivMilitärLEO
NORAD 11695·PAYLOAD·🇷🇺 Russia

Gestartet Feb 11, 1980 von Plesetsk Cosmodrome

Loading…

Nächste Überflüge (nächste 24 Stunden)

TLE

AktuellSource: Space-Track

Epoche: Sep 14, 2026, 13:55 UTC

1 11695U 80012E   26257.57996709 -.00000008  00000-0  55640-4 0  9990
2 11695  74.0205 296.7352 0012142 295.3019 218.4642 12.47777099122134

Verfolge COSMOS 1160 in Echtzeit mit AllMySat

Download on the App Store